• In Deutschland
  • Länderverzeichnis
  • Für 7 Tage
  • Wassertemperatur
  • Satellitenkarten
  • Wetterkarte
  • Widgets
  • user-avatar
    Anmelden

    Stündliche Wetter Gotha

    Heute, 21 Juli, Samstag

    Zeit Temperatur Niederschläge Wind Luftdruck Luftfeuchtigkeit
    00:00 +18°C° 0 mm 2 m/S 732 mmHg 76%
    01:00 +18°C° 0 mm 2 m/S 732 mmHg 78%
    02:00 +17°C° 0 mm 2 m/S 732 mmHg 79%
    03:00 +18°C° 0 mm 1 m/S 732 mmHg 81%
    04:00 +16°C° 0 mm 1 m/S 732 mmHg 83%
    05:00 +18°C° 0 mm 1 m/S 732 mmHg 80%
    06:00 +20°C° 0 mm 1 m/S 732 mmHg 77%
    07:00 +21°C° 0 mm 1 m/S 732 mmHg 74%
    08:00 +21°C° 0,1 mm 2 m/S 732 mmHg 70%
    09:00 +24°C° 0,1 mm 2 m/S 732 mmHg 66%
    10:00 +26°C° 0,1 mm 2 m/S 732 mmHg 61%
    11:00 +26°C° 0,8 mm 2 m/S 732 mmHg 61%
    12:00 +27°C° 0,8 mm 3 m/S 732 mmHg 60%
    13:00 +27°C° 0,8 mm 3 m/S 732 mmHg 59%
    14:00 +27°C° 0,5 mm 3 m/S 732 mmHg 59%
    15:00 +27°C° 0,5 mm 2 m/S 732 mmHg 58%
    16:00 +27°C° 0,5 mm 2 m/S 732 mmHg 57%
    17:00 +26°C° 0,5 mm 2 m/S 732 mmHg 64%
    18:00 +25°C° 0,5 mm 2 m/S 731 mmHg 70%
    19:00 +24°C° 0,5 mm 1 m/S 731 mmHg 77%
    20:00 +23°C° 0,6 mm 1 m/S 731 mmHg 80%
    21:00 +22°C° 0,6 mm 1 m/S 732 mmHg 82%
    22:00 +20°C° 0,6 mm 1 m/S 732 mmHg 85%
    23:00 +20°C° 0 mm 1 m/S 732 mmHg 86%

    Morgen, 22 Juli, Sonntag

    Zeit Temperatur Niederschläge Wind Luftdruck Luftfeuchtigkeit
    00:00 +19°C° 0 mm 1 m/S 732 mmHg 87%
    01:00 +17°C° 0 mm 0 m/S 732 mmHg 88%
    02:00 +16°C° 0 mm 0 m/S 732 mmHg 89%
    03:00 +16°C° 0 mm 0 m/S 732 mmHg 90%
    04:00 +16°C° 0 mm 0 m/S 732 mmHg 91%
    05:00 +17°C° 0,1 mm 0 m/S 732 mmHg 89%
    06:00 +18°C° 0,1 mm 0 m/S 732 mmHg 86%
    07:00 +19°C° 0,1 mm 0 m/S 732 mmHg 84%
    08:00 +22°C° 0,6 mm 1 m/S 732 mmHg 79%
    09:00 +24°C° 0,6 mm 1 m/S 733 mmHg 75%
    10:00 +25°C° 0,6 mm 1 m/S 733 mmHg 71%
    11:00 +26°C° 1,1 mm 1 m/S 733 mmHg 68%
    12:00 +26°C° 1,1 mm 1 m/S 732 mmHg 65%
    13:00 +27°C° 1,1 mm 2 m/S 732 mmHg 63%
    14:00 +27°C° 1,2 mm 2 m/S 732 mmHg 64%
    15:00 +27°C° 1,2 mm 2 m/S 732 mmHg 65%
    16:00 +26°C° 1,2 mm 2 m/S 732 mmHg 67%
    17:00 +25°C° 0,8 mm 2 m/S 732 mmHg 70%
    18:00 +24°C° 0,8 mm 2 m/S 732 mmHg 74%
    19:00 +23°C° 0,8 mm 2 m/S 732 mmHg 78%
    20:00 +21°C° 0,1 mm 2 m/S 733 mmHg 81%
    21:00 +20°C° 0,1 mm 2 m/S 733 mmHg 83%
    22:00 +19°C° 0,1 mm 2 m/S 733 mmHg 86%
    23:00 +18°C° 0 mm 2 m/S 733 mmHg 87%

    übermorgen, 23 Juli, Montag

    Zeit Temperatur Niederschläge Wind Luftdruck Luftfeuchtigkeit
    00:00 +18°C° 0 mm 2 m/S 733 mmHg 87%
    01:00 +17°C° 0 mm 2 m/S 733 mmHg 88%
    02:00 +17°C° 0 mm 2 m/S 733 mmHg 89%
    03:00 +16°C° 0 mm 2 m/S 733 mmHg 90%
    04:00 +16°C° 0 mm 2 m/S 733 mmHg 90%
    05:00 +17°C° 0 mm 2 m/S 734 mmHg 87%
    06:00 +18°C° 0 mm 2 m/S 734 mmHg 84%
    07:00 +19°C° 0 mm 2 m/S 734 mmHg 80%
    08:00 +20°C° 0 mm 2 m/S 734 mmHg 74%
    09:00 +23°C° 0 mm 2 m/S 734 mmHg 67%
    10:00 +24°C° 0 mm 2 m/S 735 mmHg 61%
    11:00 +25°C° 0 mm 2 m/S 735 mmHg 58%
    12:00 +26°C° 0 mm 2 m/S 734 mmHg 55%
    13:00 +27°C° 0 mm 2 m/S 734 mmHg 52%
    14:00 +27°C° 0,1 mm 3 m/S 734 mmHg 53%
    15:00 +27°C° 0,1 mm 3 m/S 734 mmHg 54%
    16:00 +27°C° 0,1 mm 3 m/S 734 mmHg 54%
    17:00 +26°C° 0 mm 3 m/S 734 mmHg 60%
    18:00 +25°C° 0 mm 2 m/S 734 mmHg 66%
    19:00 +24°C° 0 mm 2 m/S 735 mmHg 72%
    20:00 +22°C° 0 mm 1 m/S 735 mmHg 77%
    21:00 +21°C° 0 mm 1 m/S 735 mmHg 82%
    22:00 +19°C° 0 mm 1 m/S 735 mmHg 87%
    23:00 +19°C° 0 mm 1 m/S 735 mmHg 88%

    24 Juli, Dienstag

    Zeit Temperatur Niederschläge Wind Luftdruck Luftfeuchtigkeit
    00:00 +19°C° 0 mm 1 m/S 735 mmHg 89%
    01:00 +16°C° 0 mm 0 m/S 735 mmHg 90%
    02:00 +16°C° 0 mm 0 m/S 735 mmHg 91%
    03:00 +16°C° 0 mm 0 m/S 735 mmHg 92%
    04:00 +15°C° 0 mm 0 m/S 735 mmHg 92%
    05:00 +17°C° 0 mm 0 m/S 735 mmHg 88%
    06:00 +20°C° 0 mm 1 m/S 735 mmHg 84%
    07:00 +21°C° 0 mm 1 m/S 735 mmHg 80%
    08:00 +22°C° 0 mm 1 m/S 735 mmHg 74%
    09:00 +24°C° 0 mm 1 m/S 735 mmHg 68%
    10:00 +25°C° 0 mm 2 m/S 735 mmHg 62%
    11:00 +26°C° 0 mm 2 m/S 735 mmHg 60%
    12:00 +27°C° 0 mm 2 m/S 735 mmHg 57%
    13:00 +27°C° 0 mm 2 m/S 735 mmHg 54%
    14:00 +27°C° 0 mm 2 m/S 734 mmHg 54%
    15:00 +28°C° 0 mm 2 m/S 734 mmHg 55%
    16:00 +28°C° 0 mm 2 m/S 734 mmHg 55%
    17:00 +27°C° 0 mm 2 m/S 734 mmHg 60%
    18:00 +26°C° 0 mm 2 m/S 734 mmHg 64%
    19:00 +25°C° 0 mm 2 m/S 734 mmHg 69%
    20:00 +24°C° 0 mm 2 m/S 734 mmHg 74%
    21:00 +22°C° 0 mm 1 m/S 734 mmHg 78%
    22:00 +20°C° 0 mm 1 m/S 734 mmHg 82%
    23:00 +20°C° 0 mm 1 m/S 734 mmHg 84%

    25 Juli, Mittwoch

    Zeit Temperatur Niederschläge Wind Luftdruck Luftfeuchtigkeit
    00:00 +19°C° 0 mm 1 m/S 734 mmHg 86%
    01:00 +19°C° 0 mm 1 m/S 734 mmHg 88%
    02:00 +18°C° 0 mm 1 m/S 734 mmHg 89%
    03:00 +16°C° 0 mm 0 m/S 734 mmHg 89%
    04:00 +16°C° 0 mm 0 m/S 734 mmHg 90%
    05:00 +17°C° 0 mm 0 m/S 734 mmHg 85%
    06:00 +19°C° 0 mm 0 m/S 735 mmHg 81%
    07:00 +22°C° 0 mm 1 m/S 735 mmHg 76%
    08:00 +23°C° 0 mm 1 m/S 735 mmHg 71%
    09:00 +25°C° 0 mm 1 m/S 735 mmHg 66%
    10:00 +26°C° 0 mm 2 m/S 735 mmHg 61%
    11:00 +27°C° 0,2 mm 2 m/S 735 mmHg 59%
    12:00 +28°C° 0,2 mm 2 m/S 734 mmHg 57%
    13:00 +28°C° 0,2 mm 2 m/S 734 mmHg 55%
    14:00 +29°C° 0,3 mm 2 m/S 734 mmHg 55%
    15:00 +29°C° 0,3 mm 2 m/S 734 mmHg 55%
    16:00 +29°C° 0,3 mm 2 m/S 733 mmHg 55%
    17:00 +28°C° 0,2 mm 1 m/S 733 mmHg 59%
    18:00 +27°C° 0,2 mm 1 m/S 733 mmHg 64%
    19:00 +26°C° 0,2 mm 1 m/S 733 mmHg 68%
    20:00 +25°C° 0 mm 1 m/S 733 mmHg 72%
    21:00 +23°C° 0 mm 1 m/S 734 mmHg 75%
    22:00 +21°C° 0 mm 1 m/S 734 mmHg 79%
    23:00 +21°C° 0 mm 1 m/S 734 mmHg 80%

    26 Juli, Donnerstag

    Zeit Temperatur Niederschläge Wind Luftdruck Luftfeuchtigkeit
    00:00 +20°C° 0 mm 1 m/S 734 mmHg 82%
    01:00 +20°C° 0 mm 1 m/S 734 mmHg 83%
    02:00 +20°C° 0 mm 1 m/S 734 mmHg 84%
    03:00 +19°C° 0 mm 1 m/S 734 mmHg 85%
    04:00 +19°C° 0 mm 1 m/S 734 mmHg 86%
    05:00 +19°C° 0 mm 0 m/S 734 mmHg 83%
    06:00 +20°C° 0 mm 0 m/S 734 mmHg 79%
    07:00 +21°C° 0 mm 0 m/S 735 mmHg 75%
    08:00 +23°C° 0 mm 0 m/S 735 mmHg 69%
    09:00 +25°C° 0 mm 0 m/S 735 mmHg 62%
    10:00 +27°C° 0 mm 0 m/S 735 mmHg 56%
    11:00 +30°C° 0,2 mm 1 m/S 735 mmHg 54%
    12:00 +30°C° 0,2 mm 1 m/S 735 mmHg 51%
    13:00 +31°C° 0,2 mm 1 m/S 735 mmHg 49%
    14:00 +30°C° 0,1 mm 1 m/S 735 mmHg 50%
    15:00 +30°C° 0,1 mm 1 m/S 735 mmHg 51%
    16:00 +30°C° 0,1 mm 1 m/S 735 mmHg 52%
    17:00 +29°C° 0,2 mm 1 m/S 735 mmHg 58%
    18:00 +28°C° 0,2 mm 1 m/S 734 mmHg 64%
    19:00 +27°C° 0,2 mm 1 m/S 734 mmHg 70%
    20:00 +25°C° 0 mm 1 m/S 735 mmHg 74%
    21:00 +24°C° 0 mm 1 m/S 735 mmHg 78%
    22:00 +22°C° 0 mm 1 m/S 735 mmHg 82%
    23:00 +22°C° 0 mm 1 m/S 735 mmHg 83%
    Mehr zeigen